Weather History for KARV - September, 2012

Change the Weather History Date:

Monday, September 3, 2012

  Actual Average (KRHI) Record (KRHI)
Temperature  
Mean Temperature 72 °F 61 °F  
Max Temperature 84 °F 72 °F 88 °F (1999)
Min Temperature 59 °F 49 °F 31 °F (1974)
Degree Days  
Heating Degree Days 0 6  
Month to date heating degree days 16  
Since 1 July heating degree days 143  
Cooling Degree Days 6 1  
Month to date cooling degree days 3  
Year to date cooling degree days 244  
Growing Degree Days 22 (Base 50)    
Moisture  
Dew Point 58 °F    
Average Humidity 63    
Maximum Humidity 83    
Minimum Humidity 37    
Precipitation  
Precipitation 0.00 in 0.14 in 2.63 in (1934)
Month to date precipitation 0.40  
Year to date precipitation 21.28  
Snow  
Snow 0.00 in - 0.00 in ()
Month to date snowfall  
Since 1 July snowfall  
Since 1 September snowfall  
Snow Depth -    
Sea Level Pressure  
Sea Level Pressure 29.93 in    
Wind  
Wind Speed 6 mph (WSW)    
Max Wind Speed 12 mph    
Max Gust Speed 17 mph    
Visibility 10 miles    
Events      
T = Trace of Precipitation, MM = Missing Value Source: NWS Daily Summary

Daily Weather History Graph

Daily Weather History Graph

Search for Another Location

Airport or City:

Trip Planner

Search our weather history database for the weather conditions in past years. The results will help you decide how hot, cold, wet, or windy it might be!

Date:

Astronomy

Sep. 03, 2012 Rise Set
Actual Time 6:22 AM CDT 7:32 PM CDT
Civil Twilight 5:52 AM CDT 8:02 PM CDT
Nautical Twilight 5:15 AM CDT 8:39 PM CDT
Astronomical Twilight 4:36 AM CDT 9:18 PM CDT
Moon 8:36 PM CDT (9/3) 9:45 AM CDT (9/3)
Length of Visible Light 14h 10m
Length of Day
13h 09m
Waning Gibbous, 90% of the Moon is Illuminated
Sep 3
Waning Gibbous
Sep 8
Last Quarter
Sep 15
New
Sep 22
First Quarter
Sep 29
Full

Hourly Weather History & Observations

Time (CDT) Temp. Heat Index Dew Point Humidity Pressure Visibility Wind Dir Wind Speed Gust Speed Precip Events Conditions
12:07 AM 69.8 °F - 55.4 °F 60% 29.97 in 10.0 mi SSE 5.8 mph - N/A   Clear
12:15 AM 69.8 °F - 53.6 °F 56% 29.97 in 10.0 mi South 6.9 mph - N/A   Clear
12:55 AM 69.8 °F - 53.6 °F 56% 29.96 in 10.0 mi SSE 6.9 mph - N/A   Clear
1:15 AM 69.8 °F - 55.4 °F 60% 29.96 in 10.0 mi SSE 5.8 mph - N/A   Scattered Clouds
1:35 AM 66.2 °F - 53.6 °F 64% 29.97 in 10.0 mi South 5.8 mph - N/A   Clear
1:55 AM 66.2 °F - 53.6 °F 64% 29.97 in 10.0 mi South 6.9 mph - N/A   Clear
2:15 AM 66.2 °F - 53.6 °F 64% 29.96 in 10.0 mi South 6.9 mph - N/A   Clear
2:55 AM 66.2 °F - 55.4 °F 68% 29.95 in 10.0 mi South 6.9 mph - N/A   Clear
3:15 AM 66.2 °F - 55.4 °F 68% 29.95 in 10.0 mi South 5.8 mph - N/A   Clear
3:35 AM 66.2 °F - 55.4 °F 68% 29.96 in 10.0 mi South 5.8 mph - N/A   Clear
3:55 AM 64.4 °F - 55.4 °F 73% 29.96 in 10.0 mi South 6.9 mph - N/A   Clear
4:15 AM 66.2 °F - 57.2 °F 73% 29.95 in 10.0 mi South 8.1 mph - N/A   Clear
4:35 AM 66.2 °F - 57.2 °F 73% 29.95 in 10.0 mi South 9.2 mph - N/A   Clear
4:55 AM 66.2 °F - 59.0 °F 78% 29.95 in 10.0 mi South 6.9 mph - N/A   Clear
5:15 AM 66.2 °F - 59.0 °F 78% 29.95 in 10.0 mi South 11.5 mph 16.1 mph N/A   Clear
5:35 AM 66.2 °F - 59.0 °F 78% 29.94 in 10.0 mi South 9.2 mph - N/A   Scattered Clouds
5:55 AM 66.2 °F - 59.0 °F 78% 29.95 in 10.0 mi South 5.8 mph - N/A   Scattered Clouds
6:15 AM 66.2 °F - 59.0 °F 78% 29.95 in 10.0 mi SSW 6.9 mph - N/A   Mostly Cloudy
6:35 AM 66.2 °F - 59.0 °F 78% 29.93 in 10.0 mi South 5.8 mph - N/A   Scattered Clouds
6:55 AM 66.2 °F - 59.0 °F 78% 29.94 in 10.0 mi SSW 5.8 mph - N/A   Scattered Clouds
7:15 AM 66.2 °F - 60.8 °F 83% 29.94 in 10.0 mi South 9.2 mph - N/A   Scattered Clouds
7:55 AM 69.8 °F - 60.8 °F 73% 29.93 in 10.0 mi SSW 10.4 mph - N/A   Scattered Clouds
8:15 AM 71.6 °F - 64.4 °F 78% 29.93 in 10.0 mi SSW 9.2 mph 17.3 mph N/A   Mostly Cloudy
8:35 AM 71.6 °F - 64.4 °F 78% 29.93 in 10.0 mi SW 8.1 mph - N/A   Mostly Cloudy
8:55 AM 71.6 °F - 64.4 °F 78% 29.94 in 10.0 mi SW 6.9 mph - N/A   Mostly Cloudy
9:15 AM 71.6 °F - 62.6 °F 73% 29.94 in 10.0 mi SW 4.6 mph - N/A   Mostly Cloudy
9:35 AM 71.6 °F - 64.4 °F 78% 29.94 in 10.0 mi SSW 4.6 mph - N/A   Scattered Clouds
9:55 AM 77.0 °F - 68.0 °F 74% 29.94 in 10.0 mi WSW 4.6 mph - N/A   Mostly Cloudy
10:15 AM 77.0 °F - 68.0 °F 74% 29.94 in 10.0 mi West 5.8 mph - N/A   Mostly Cloudy
10:35 AM 77.0 °F - 64.4 °F 65% 29.94 in 10.0 mi WNW 6.9 mph - N/A   Mostly Cloudy
10:55 AM 77.0 °F - 66.2 °F 69% 29.94 in 10.0 mi WNW 5.8 mph - N/A   Scattered Clouds
11:15 AM 77.0 °F - 66.2 °F 69% 29.94 in 10.0 mi WNW 3.5 mph - N/A   Mostly Cloudy
11:35 AM 78.8 °F - 66.2 °F 65% 29.94 in 10.0 mi SSW 4.6 mph - N/A   Mostly Cloudy
11:55 AM 78.8 °F - 66.2 °F 65% 29.93 in 10.0 mi West 3.5 mph - N/A   Mostly Cloudy
12:15 PM 78.8 °F - 68.0 °F 69% 29.93 in 10.0 mi WSW 4.6 mph - N/A   Overcast
12:35 PM 78.8 °F - 66.2 °F 65% 29.93 in 10.0 mi WSW 6.9 mph - N/A   Overcast
12:55 PM 78.8 °F - 64.4 °F 61% 29.93 in 10.0 mi West 5.8 mph - N/A   Scattered Clouds
1:15 PM 78.8 °F - 64.4 °F 61% 29.92 in 10.0 mi WNW 4.6 mph - N/A   Scattered Clouds
1:35 PM 80.6 °F 82.7 °F 66.2 °F 61% 29.92 in 10.0 mi West 3.5 mph - N/A   Scattered Clouds
1:55 PM 80.6 °F 82.7 °F 66.2 °F 61% 29.91 in 10.0 mi West 6.9 mph - N/A   Mostly Cloudy
2:15 PM 80.6 °F 82.3 °F 64.4 °F 58% 29.90 in 10.0 mi NNW 8.1 mph - N/A   Mostly Cloudy
2:35 PM 82.4 °F 83.4 °F 62.6 °F 51% 29.90 in 10.0 mi WNW 5.8 mph - N/A   Mostly Cloudy
2:55 PM 84.2 °F 85.0 °F 62.6 °F 48% 29.90 in 10.0 mi WNW 9.2 mph - N/A   Scattered Clouds
3:15 PM 84.2 °F 83.8 °F 59.0 °F 42% 29.90 in 10.0 mi NW 4.6 mph - N/A   Clear
3:35 PM 84.2 °F 83.5 °F 57.2 °F 40% 29.90 in 10.0 mi West 9.2 mph - N/A   Clear
3:55 PM 84.2 °F 83.5 °F 57.2 °F 40% 29.89 in 10.0 mi West 8.1 mph - N/A   Clear
4:15 PM 84.2 °F 83.0 °F 55.4 °F 37% 29.89 in 10.0 mi WNW 5.8 mph - N/A   Scattered Clouds
4:35 PM 84.2 °F 83.0 °F 55.4 °F 37% 29.89 in 10.0 mi NW 4.6 mph - N/A   Mostly Cloudy
4:55 PM 82.4 °F 82.0 °F 57.2 °F 42% 29.89 in 10.0 mi North 9.2 mph - N/A   Scattered Clouds
5:15 PM 82.4 °F 81.7 °F 55.4 °F 39% 29.89 in 10.0 mi NW 6.9 mph - N/A   Scattered Clouds
5:35 PM 82.4 °F 81.7 °F 55.4 °F 39% 29.89 in 10.0 mi NNW 5.8 mph - N/A   Scattered Clouds
5:55 PM 82.4 °F 81.7 °F 55.4 °F 39% 29.89 in 10.0 mi NNW 5.8 mph - N/A   Clear
6:15 PM 80.6 °F 80.3 °F 53.6 °F 39% 29.90 in 10.0 mi NNW 5.8 mph - N/A   Clear
6:35 PM 80.6 °F - 51.8 °F 37% 29.90 in 10.0 mi North 4.6 mph - N/A   Clear
6:55 PM 80.6 °F - 51.8 °F 37% 29.91 in 10.0 mi North 5.8 mph - N/A   Clear
7:15 PM 77.0 °F - 51.8 °F 41% 29.91 in 10.0 mi North 5.8 mph - N/A   Clear
7:35 PM 77.0 °F - 51.8 °F 41% 29.92 in 10.0 mi NNE 4.6 mph - N/A   Clear
7:55 PM 77.0 °F - 51.8 °F 41% 29.92 in 10.0 mi NNE 3.5 mph - N/A   Clear
8:15 PM 71.6 °F - 51.8 °F 50% 29.93 in 10.0 mi North 3.5 mph - N/A   Clear
8:35 PM 71.6 °F - 55.4 °F 57% 29.93 in 10.0 mi Calm Calm - N/A   Clear
8:55 PM 66.2 °F - 53.6 °F 64% 29.94 in 10.0 mi Calm Calm - N/A   Clear
9:15 PM 64.4 °F - 53.6 °F 68% 29.94 in 10.0 mi Calm Calm - N/A   Clear
9:35 PM 64.4 °F - 53.6 °F 68% 29.94 in 10.0 mi Calm Calm - N/A   Clear
9:55 PM 62.6 °F - 53.6 °F 72% 29.93 in 10.0 mi Calm Calm - N/A   Clear
10:15 PM 60.8 °F - 53.6 °F 77% 29.93 in 10.0 mi Calm Calm - N/A   Clear
10:35 PM 60.8 °F - 53.6 °F 77% 29.93 in 10.0 mi Calm Calm - N/A   Clear
10:55 PM 59.0 °F - 51.8 °F 77% 29.94 in 10.0 mi Calm Calm - N/A   Clear
11:15 PM 59.0 °F - 51.8 °F 77% 29.94 in 10.0 mi Calm Calm - N/A   Clear
11:35 PM 59.0 °F - 53.6 °F 82% 29.93 in 10.0 mi Calm Calm - N/A   Clear
11:55 PM 59.0 °F - 51.8 °F 77% 29.93 in 10.0 mi Calm Calm - N/A   Clear